STARLINK-34368

Last updated on Thu Jul 03 2025 00:02:06 GMT+0000 (Coordinated Universal Time)

1 64311U 25123W 25183.58335648 -.00895203 00000+0 -16693-1 0 9993 2 64311 70.0002 120.0801 0003886 269.6510 325.6575 15.51331415 5076
UTC large
Height (km)
Speed (km/s)
/
Latitude / Longitude
Inclination (degrees)
Orbital Period (minutes)
Azimuth
Elevation
Range (km)
Doppler Factor

Next 0 passes for location: London (51.5072 / 0.1276)

Sorry there are no passes over London.